Location: Powder Track
(41.8531°N, 72.3584°W)
Time: 01:52:19
(UTC+00:00)

A-11 Canister half - Pass Details

Date: 01 August 2021
Orbit: 1526 x 1683 km, 47.3° (Epoch: 22 September)

Event Time Altitude Azimuth Distance (km) Brightness Sun altitude
Rises 00:47:27 0° 289° (WNW) 4,824 13.5 -7.2°
Reaches altitude 10° 00:52:26 10° 268° (W) 3,800 12.0 -8.0°
Maximum altitude 00:57:08 15° 238° (WSW) 3,393 11.1 -8.7°
Drops below altitude 10° 01:01:47 10° 207° (SSW) 3,733 11.0 -9.4°
Sets 01:06:39 0° 186° (S) 4,687 11.2 -10.2°
